Hourly Weather Roundup
Issued by NWS Central Illinois

Home | Current Version | Previous Version | Graphics & Text | Print | Product List | Glossary On
Versions: 1 2 3 4 5 6 7 8 9 10 11 12 13 14 15 16 17 18 19 20 21 22 23 24 25 26 27 28 29 30 31 32 33 34 35 36 37 38 39 40 41 42 43 44 45 46 47 48 49 50
000
NZUS43 KILX 240710
HWRILX

AREA WEATHER ROUNDUP
NATIONAL WEATHER SERVICE, LINCOLN IL
200 AM CDT THU APR 24 2014


CITY           SKY/WX    TMP DP  RH WIND       PRES   REMARKS
BLOOMINGTON    CLOUDY    48  35  60 SE9       29.98F
CHAMPAIGN      CLOUDY    51  37  58 SE9       29.98F
DANVILLE       CLOUDY    52  34  51 SE6       29.98S
DECATUR        CLOUDY    52  33  48 SE13      29.95F
FLORA          PTCLDY    48  37  64 E7        29.98F
GALESBURG      CLOUDY    49  38  68 E8        29.92F
JACKSONVILLE   MOCLDY    52  33  48 SE12      29.91F
LACON          CLOUDY    44  37  76 E12       29.98S
LAWRENCEVILLE  PTCLDY    51  36  56 E5        30.01F
LITCHFIELD     CLOUDY    51  35  53 SE10      29.93F
$$


CITY           SKY/WX    TMP DP  RH WIND       PRES   REMARKS
LINCOLN        MOCLDY    50  34  54 E3        29.95F
MACOMB         CLOUDY    52  33  48 SE9       29.93F
MATTOON        CLOUDY    52  32  46 SE13      29.97F
MT CARMEL AP   PTCLDY    52  37  58 E5        30.00F
OLNEY-NOBLE AP MOCLDY    50  36  57 CALM      29.99F
PARIS          CLOUDY    52  37  55 SE5       30.00F
PEORIA         CLOUDY    52  37  56 E8        29.96F
PONTIAC        CLOUDY    46  39  76 E16       29.98F
RANTOUL        CLOUDY    53  39  59 CALM      30.01R
ROBINSON       PTCLDY    50  39  65 E5        30.01F
SPRINGFIELD    MOCLDY    54  31  41 SE12      29.93F
TAYLORVILLE    CLOUDY    52  34  50 SE12      29.94F
$$

...REGIONAL REPORTS...


CITY           SKY/WX    TMP DP  RH WIND       PRES   REMARKS
CHICAGO O`HARE LGT RAIN  39  30  70 NE10      30.07F WCI  32
KANKAKEE       CLOUDY    42  38  88 E5        30.04F
MOLINE         CLOUDY    46  37  71 E15       29.95S
MOUNT VERNON   MOCLDY    52  30  43 E6        29.97F
PITTSFIELD     MOCLDY    54  34  46 SE14      29.89F
QUINCY         MOCLDY    52  34  50 SE13      29.86F
ROCKFORD       CLOUDY    39  29  67 E12       30.08R WCI  32
$$


CITY           SKY/WX    TMP DP  RH WIND       PRES   REMARKS
BURLINGTON     CLOUDY    51  33  50 E7        29.88F
CEDAR RAPIDS   CLOUDY    46  39  76 E15       29.87F
DES MOINES     CLOUDY    53  39  59 SE16G24   29.73F
KIRKSVILLE     MOCLDY    53  36  52 SE15      29.80F
OTTUMWA        CLOUDY    47  36  65 E14       29.81F
ST LOUIS       CLOUDY    57  32  38 SE13      29.91F
$$


CITY           SKY/WX    TMP DP  RH WIND       PRES   REMARKS
TERRE HAUTE    MOCLDY    50  36  58 SE5       30.00F
EVANSVILLE     CLEAR     51  38  60 CALM      30.00F
INDIANAPOLIS   CLOUDY    51  31  46 SE10      30.02S
LAFAYETTE      LGT RAIN  50  36  58 E6        30.02F
MADISON        LGT RAIN  38  29  70 SE14      30.10R WCI  30
MILWAUKEE      LGT RAIN  38  26  62 E3        30.10R
$$




USA.gov is the U.S. government's official web portal to all federal, state and local government web resources and services.